Change the Weather History Date:

Tuesday, December 18, 2012

  Actual Average Record
Temperature  
Mean Temperature 34 °F 28 °F  
Max Temperature 39 °F 34 °F 55 °F (1957)
Min Temperature 29 °F 22 °F -7 °F (1963)
Degree Days  
Heating Degree Days 31 37  
Month to date heating degree days 430 620  
Since 1 July heating degree days 1751 1889  
Cooling Degree Days 0 0  
Month to date cooling degree days 0 0  
Year to date cooling degree days 1115 773  
Moisture  
Dew Point 31 °F    
Average Humidity 82    
Maximum Humidity 89    
Minimum Humidity 75    
Precipitation  
Precipitation 0.02 in 0.08 in 1.35 in (1895)
Month to date precipitation 1.53 1.56  
Year to date precipitation 32.79 36.95  
Snow  
Snow T in 0.60 in 8.40 in (1981)
Month to date snowfall 1.6 9.1  
Since 1 July snowfall 1.6 14.3  
Snow Depth 0.00 in    
Sea Level Pressure  
Sea Level Pressure 29.73 in    
Wind  
Wind Speed 7 mph (South)    
Max Wind Speed 18 mph    
Max Gust Speed 23 mph    
Visibility 7 miles    
Events Rain , Snow    
T = Trace of Precipitation, MM = Missing Value Source: NWS Daily Summary

Daily Weather History Graph

Daily Weather History Graph

Search for Another Location

Airport or City:

Trip Planner

Search our weather history database for the weather conditions in past years. The results will help you decide how hot, cold, wet, or windy it might be!

Date:

Astronomy

Dec. 18, 2012 Rise Set
Actual Time 8:07 AM EST 5:16 PM EST
Civil Twilight 7:36 AM EST 5:48 PM EST
Nautical Twilight 7:00 AM EST 6:23 PM EST
Astronomical Twilight 6:27 AM EST 6:57 PM EST
Moon 11:42 AM EST (12/18) 11:47 PM EST (12/18)
Length of Visible Light 10h 12m
Length of Day
9h 09m
Waxing Crescent, 34% of the Moon is Illuminated
Dec 18
Waxing Crescent
Dec 20
First Quarter
Dec 28
Full
Jan 4
Last Quarter
Jan 11
New

Hourly Weather History & Observations

Time (EST) Temp. Windchill Dew Point Humidity Pressure Visibility Wind Dir Wind Speed Gust Speed Precip Events Conditions
12:54 AM 34.0 °F 28.8 °F 30.9 °F 89% 29.72 in 8.0 mi NW 5.8 mph - N/A   Overcast
1:33 AM 35.6 °F 30.7 °F 32.0 °F 87% 29.71 in 9.0 mi NW 5.8 mph - N/A   Overcast
1:54 AM 36.0 °F 29.0 °F 30.9 °F 82% 29.73 in 10.0 mi NW 9.2 mph - N/A   Overcast
2:54 AM 35.1 °F 30.1 °F 28.9 °F 78% 29.74 in 10.0 mi NW 5.8 mph - N/A   Overcast
3:54 AM 32.0 °F 27.5 °F 27.0 °F 82% 29.75 in 10.0 mi West 4.6 mph - N/A   Clear
4:54 AM 30.0 °F 24.1 °F 25.0 °F 82% 29.75 in 10.0 mi West 5.8 mph - N/A   Clear
5:54 AM 30.9 °F - 26.1 °F 82% 29.76 in 10.0 mi Calm Calm - N/A   Overcast
6:50 AM 32.0 °F 28.7 °F 28.4 °F 87% 29.76 in 10.0 mi WSW 3.5 mph - N/A   Overcast
6:54 AM 32.0 °F 28.7 °F 28.4 °F 87% 29.76 in 10.0 mi WSW 3.5 mph - N/A   Overcast
7:54 AM 33.1 °F 26.9 °F 28.0 °F 82% 29.80 in 10.0 mi SSW 6.9 mph - N/A   Overcast
8:37 AM 30.2 °F 23.4 °F 26.6 °F 86% 29.78 in 7.0 mi SSW 6.9 mph - N/A   Scattered Clouds
8:54 AM 32.0 °F 25.6 °F 28.0 °F 85% 29.81 in 6.0 mi SW 6.9 mph - N/A   Partly Cloudy
9:19 AM 33.8 °F 28.6 °F 28.4 °F 81% 29.79 in 4.0 mi SSW 5.8 mph - N/A   Mostly Cloudy
9:43 AM 33.8 °F 27.7 °F 30.2 °F 87% 29.79 in 4.0 mi SSW 6.9 mph - N/A   Partly Cloudy
9:50 AM 33.8 °F 27.0 °F 30.2 °F 87% 29.79 in 4.0 mi SSW 8.1 mph - N/A   Mostly Cloudy
9:54 AM 33.1 °F 26.1 °F 30.0 °F 89% 29.81 in 4.0 mi SSW 8.1 mph - N/A   Mostly Cloudy
10:54 AM 35.1 °F 28.6 °F 30.0 °F 82% 29.82 in 6.0 mi South 8.1 mph - N/A   Haze
11:06 AM 35.6 °F 29.2 °F 28.4 °F 75% 29.80 in 7.0 mi SSW 8.1 mph - N/A   Overcast
11:54 AM 35.1 °F 25.9 °F 28.9 °F 78% 29.81 in 7.0 mi SSW 13.8 mph - N/A   Overcast
12:54 PM 36.0 °F 28.0 °F 28.9 °F 76% 29.79 in 7.0 mi SSW 11.5 mph - N/A   Overcast
1:37 PM 35.6 °F 29.9 °F 28.4 °F 75% 29.73 in 6.0 mi SSE 6.9 mph - 0.00 in Snow Light Snow
1:43 PM 35.6 °F 28.6 °F 28.4 °F 75% 29.72 in 2.0 mi SSE 9.2 mph - 0.00 in Snow Snow
1:51 PM 35.6 °F 28.6 °F 30.2 °F 81% 29.71 in 3.0 mi SSE 9.2 mph - 0.00 in Snow Light Snow
1:54 PM 36.0 °F 28.5 °F 30.0 °F 79% 29.73 in 4.0 mi SE 10.4 mph - 0.00 in Snow Light Snow
2:54 PM 37.9 °F 30.0 °F 30.9 °F 76% 29.71 in 8.0 mi SSE 12.7 mph - 0.00 in   Mostly Cloudy
3:16 PM 37.4 °F 28.2 °F 30.2 °F 75% 29.69 in 8.0 mi SSE 16.1 mph - N/A   Mostly Cloudy
3:29 PM 37.4 °F 28.9 °F 30.2 °F 75% 29.67 in 8.0 mi SSE 13.8 mph - N/A   Scattered Clouds
3:54 PM 37.9 °F 30.0 °F 30.0 °F 73% 29.70 in 8.0 mi South 12.7 mph - N/A   Scattered Clouds
4:33 PM 37.4 °F 28.9 °F 30.2 °F 75% 29.66 in 7.0 mi SE 13.8 mph - N/A   Overcast
4:54 PM 37.9 °F 30.0 °F 30.9 °F 76% 29.67 in 7.0 mi SE 12.7 mph - N/A   Overcast
5:54 PM 39.0 °F 33.4 °F 32.0 °F 76% 29.70 in 10.0 mi SSE 8.1 mph - N/A   Overcast
6:09 PM 39.2 °F 33.6 °F 32.0 °F 75% 29.68 in 10.0 mi SSE 8.1 mph - N/A   Overcast
6:47 PM 39.2 °F 33.0 °F 33.8 °F 81% 29.68 in 9.0 mi SSE 9.2 mph - N/A   Overcast
6:54 PM 39.0 °F 32.8 °F 33.1 °F 79% 29.69 in 9.0 mi SSE 9.2 mph - N/A   Overcast
7:54 PM 39.0 °F 34.0 °F 34.0 °F 82% 29.70 in 7.0 mi South 6.9 mph - 0.00 in Rain Light Rain
8:54 PM 39.0 °F 34.0 °F 35.1 °F 86% 29.70 in 5.0 mi SSE 6.9 mph - 0.02 in Rain Light Rain
9:24 PM 39.2 °F - 35.6 °F 87% 29.68 in 6.0 mi Calm Calm - 0.00 in   Overcast
9:49 PM 39.2 °F - 35.6 °F 87% 29.69 in 7.0 mi Calm Calm - 0.00 in   Overcast
9:54 PM 39.0 °F - 35.1 °F 86% 29.70 in 8.0 mi Calm Calm - 0.00 in   Overcast
10:10 PM 39.2 °F 37.0 °F 35.6 °F 87% 29.68 in 8.0 mi SSE 3.5 mph - N/A   Overcast
10:35 PM 39.2 °F 37.0 °F 35.6 °F 87% 29.68 in 6.0 mi SSE 3.5 mph - N/A   Overcast
10:54 PM 39.0 °F - 36.0 °F 89% 29.72 in 6.0 mi Calm Calm - N/A   Overcast
11:54 PM 37.9 °F - 36.0 °F 93% 29.73 in 5.0 mi Calm Calm - N/A   Overcast